Weather History for Aurora, IL

Change the Weather History Date:

Thursday, November 14, 2013

  Actual Average Record
Temperature  
Mean Temperature 40 °F 39 °F  
Max Temperature 50 °F 49 °F 65 °F (2001)
Min Temperature 30 °F 29 °F 20 °F (2003)
Degree Days  
Heating Degree Days 25 26  
Month to date heating degree days 357 320  
Since 1 July heating degree days 930 927  
Cooling Degree Days 0 0  
Month to date cooling degree days 0 0  
Year to date cooling degree days 745 655  
Moisture  
Dew Point 23 °F    
Average Humidity 54    
Maximum Humidity 69    
Minimum Humidity 39    
Precipitation  
Precipitation 0.00 in 0.11 in 0.40 in (2001)
Month to date precipitation 0.95 1.61  
Year to date precipitation 31.48 33.37  
Sea Level Pressure  
Sea Level Pressure 30.05 in    
Wind  
Wind Speed 11 mph (SSW)    
Max Wind Speed 20 mph    
Max Gust Speed 26 mph    
Visibility 10 miles    
Events      
T = Trace of Precipitation, MM = Missing Value Source: NWS Daily Summary

Daily Weather History Graph

Daily Weather History Graph

Search for Another Location

Airport:

Trip Planner

Search our weather history database for the weather conditions in past years. The results will help you decide how hot, cold, wet, or windy it might be!

Date:

Astronomy

Nov. 14, 2013 Rise Set
Actual Time 6:42 AM CST 4:34 PM CST
Civil Twilight 6:12 AM CST 5:03 PM CST
Nautical Twilight 5:38 AM CST 5:37 PM CST
Astronomical Twilight 5:06 AM CST 6:10 PM CST
Moon 2:57 PM CST (11/14) 3:35 AM CST (11/14)
Length of Visible Light 10h 51m
Length of Day
9h 51m
Waxing Gibbous, 92% of the Moon is Illuminated
Nov 14
Waxing Gibbous
Nov 17
Full
Nov 25
Last Quarter
Dec 2
New
Dec 9
First Quarter

Hourly Weather History & Observations

Time (CST) Temp. Windchill Dew Point Humidity Pressure Visibility Wind Dir Wind Speed Gust Speed Precip Events Conditions
12:52 AM 30.9 °F 23.5 °F 21.0 °F 67% 30.18 in 10.0 mi South 8.1 mph - N/A   Clear
1:52 AM 30.9 °F 24.3 °F 19.9 °F 64% 30.17 in 10.0 mi South 6.9 mph - N/A   Clear
2:52 AM 30.0 °F 22.4 °F 19.9 °F 66% 30.15 in 10.0 mi South 8.1 mph - N/A   Clear
3:52 AM 30.9 °F 23.5 °F 19.9 °F 64% 30.13 in 10.0 mi South 8.1 mph - N/A   Clear
4:52 AM 30.9 °F 23.5 °F 19.9 °F 64% 30.13 in 10.0 mi South 8.1 mph - N/A   Clear
5:52 AM 30.9 °F 21.7 °F 19.9 °F 64% 30.11 in 10.0 mi SSW 11.5 mph - N/A   Clear
6:52 AM 30.9 °F 23.5 °F 19.9 °F 64% 30.11 in 10.0 mi SSW 8.1 mph - N/A   Clear
7:52 AM 33.1 °F 23.9 °F 21.0 °F 61% 30.12 in 10.0 mi South 12.7 mph - N/A   Clear
8:52 AM 37.0 °F 28.5 °F 21.9 °F 54% 30.10 in 10.0 mi SSW 13.8 mph - N/A   Clear
9:52 AM 41.0 °F 33.5 °F 21.9 °F 47% 30.08 in 10.0 mi SSW 13.8 mph 24.2 mph N/A   Clear
10:52 AM 45.0 °F 37.6 °F 24.1 °F 44% 30.06 in 10.0 mi SSW 17.3 mph - N/A   Clear
11:52 AM 48.0 °F - 24.1 °F 39% 30.03 in 10.0 mi SSW 15.0 mph 25.3 mph N/A   Clear
12:52 PM 48.9 °F - 25.0 °F 39% 30.01 in 10.0 mi SW 12.7 mph 20.7 mph N/A   Clear
1:52 PM 48.9 °F - 27.0 °F 43% 29.99 in 10.0 mi SSW 11.5 mph 19.6 mph N/A   Clear
2:52 PM 48.9 °F - 26.1 °F 41% 29.97 in 10.0 mi South 16.1 mph 21.9 mph N/A   Clear
3:52 PM 48.0 °F - 27.0 °F 44% 29.97 in 10.0 mi SSW 16.1 mph 21.9 mph N/A   Clear
4:52 PM 46.0 °F 41.0 °F 25.0 °F 44% 29.98 in 10.0 mi SSW 10.4 mph - N/A   Clear
5:52 PM 42.1 °F 39.2 °F 25.0 °F 51% 29.99 in 10.0 mi SSW 4.6 mph - N/A   Clear
6:52 PM 43.0 °F 37.7 °F 25.0 °F 49% 29.99 in 10.0 mi South 9.2 mph - N/A   Clear
7:52 PM 43.0 °F 37.7 °F 25.0 °F 49% 30.00 in 10.0 mi South 9.2 mph - N/A   Clear
8:52 PM 41.0 °F 34.7 °F 25.0 °F 53% 30.00 in 10.0 mi South 10.4 mph - N/A   Clear
9:52 PM 41.0 °F 34.3 °F 26.1 °F 55% 29.99 in 10.0 mi SSW 11.5 mph - N/A   Clear
10:52 PM 41.0 °F 33.9 °F 27.0 °F 57% 29.98 in 10.0 mi SSW 12.7 mph - N/A   Clear
11:52 PM 39.9 °F 32.5 °F 27.0 °F 60% 29.98 in 10.0 mi SSW 12.7 mph - N/A   Clear